Voltar ao catálogo

USA 426

AtivoMilitarVLEO
NORAD 61649·PAYLOAD·🇺🇸 United States

Lançado Oct 24, 2024 de Vandenberg Space Force Base

Loading…

Próximas Passagens (próximas 24 horas)

TLE

ObsoletoSource: Mike McCants

Época: Aug 11, 2026, 20:38 UTC

1 61649U 24192F   26223.86028207 0.00000000  00000-0  00000-0 0    05
2 61649  70.0214 127.1583 0003000 109.4696 250.5304 14.96713330    03

Acompanhe USA 426 em tempo real com AllMySat

Download on the App Store